User: anonymous   Login
Location: PFO Observatory
(45.2937°N, 66.0991°W)
Time: 12:24:13
(UTC-03:00)
Language:

Cosmos 1151 Rocket - Orbit

View from above orbital plane
View from above orbital plane
View from above satellite
View from above satellite

Ground track
Ground track

The orbit data is extracted from the following two-line orbital elements,

1 11672U 80005B   15211.82430069  .00000229  00000-0  22403-4 0  9990
2 11672 082.5157 008.0407 0018384 079.8205 280.5085 14.87633977921196
Epoch (UTC): 30 July 2015 19:46:59
Eccentricity: 0.0018384
inclination: 82.5157°
perigee height: 592 km
apogee height: 618 km
right ascension of ascending node: 8.0407°
argument of perigee: 79.8205°
revolutions per day: 14.87633977
mean anomaly at epoch: 280.5085°
orbit number at epoch: 92119

The dashed part of the orbit path shows where the satellite is in the earth's shadow,  

DLR